Location: Tucson
(32.2217°N, 110.9265°W)
Time: 09:30:09
(UTC-07:00)

Envisat - Pass Details

Date: 02 October 2021
Orbit: 764 x 766 km, 98.2° (Epoch: 22 October)

Event Time Altitude Azimuth Distance (km) Brightness Sun altitude
Rises 04:21:57 0° 33° (NNE) 3,230 6.9 -25.4°
Reaches altitude 10° 04:25:01 10° 53° (NE) 2,299 6.3 -24.7°
Maximum altitude 04:28:22 18° 94° (E) 1,825 5.8 -24.0°
Drops below altitude 10° 04:31:41 10° 136° (SE) 2,290 5.9 -23.3°
Sets 04:34:43 0° 155° (SSE) 3,212 6.4 -22.7°
